Date String (YYYY-MM-DD hh:mm:ss) UTC,Instrument flags,absolute air pressure of the measurement (hPa),sample flow rate (lpm),inlet stack bypass flow (lpm),air temperature of the measurement (°C),ambient temperature measured by the external sensor (°C),aerosol sample conditioner tube jacket temperature (°C),OPC LED temperature (°C),internal box temperature (°C),relative humidity of the measurement (%),span deviation,mass concentration of particles derived from Lorenz-Mie calculation of OPC scattering (μg/m³),mass concentration of particles derived from Lorenz-Mie calculation of OPC scattering (μg/m³),mass concentration of particles derived from Lorenz-Mie calculation of OPC scattering (μg/m³)
DateTimeUTC,F1_M11,P_M11,Q1_M11,Q2_M11,T1_M11,T2_M11,T3_M11,T4_M11,T5_M11,U1_M11,ZSPAN_M11,X2_M11,X0_M11,X1_M11
2024-05-10 00:00:00,SystemResetWarning,0833.9,5.00,000.00,024.6,022.6,000.0,033.2,025.9,020.3,0000.0,0001.92,0006.25,0001.20
2024-05-10 00:01:00,SystemResetWarning,0834.0,5.01,000.00,024.6,023.0,000.0,033.1,026.1,020.3,0000.0,0001.89,0006.70,0001.18
2024-05-10 00:02:00,SystemResetWarning,0834.0,4.99,000.00,024.6,023.3,000.0,033.1,026.3,020.3,0000.0,0001.86,0006.79,0001.16
2024-05-10 00:03:00,SystemResetWarning,0834.0,5.00,000.00,024.7,023.5,000.0,033.1,026.4,020.4,0000.0,0001.90,0006.89,0001.15
2024-05-10 00:04:00,SystemResetWarning,0834.0,5.00,000.00,024.7,023.8,000.0,033.0,026.5,020.4,0000.0,0001.91,0006.80,0001.14
2024-05-10 00:05:00,SystemResetWarning,0834.0,5.00,000.00,024.8,023.9,000.0,033.0,026.6,020.1,0000.0,0001.90,0007.04,0001.14
2024-05-10 00:06:00,SystemResetWarning,0834.0,5.00,000.00,024.8,024.1,000.0,033.0,026.7,019.8,0000.0,0001.89,0008.02,0001.15
2024-05-10 00:07:00,SystemResetWarning,0834.0,5.01,000.00,024.9,024.2,000.0,033.0,026.7,019.5,0000.0,0001.90,0008.20,0001.17
2024-05-10 00:08:00,SystemResetWarning,0834.0,5.00,000.00,024.9,024.3,000.0,033.1,026.8,019.4,0000.0,0001.87,0008.52,0001.17
2024-05-10 00:09:00,SystemResetWarning,0834.0,4.99,000.00,025.0,024.4,000.0,033.1,026.8,019.2,0000.0,0001.86,0007.94,0001.16
2024-05-10 00:10:00,SystemResetWarning,0834.0,4.99,000.00,025.0,024.5,000.0,033.1,026.9,019.4,0000.0,0001.83,0008.17,0001.15
2024-05-10 00:11:00,SystemResetWarning,0834.1,5.00,000.00,025.1,024.6,000.0,033.1,026.9,019.1,0000.0,0001.80,0008.46,0001.15
2024-05-10 00:12:00,SystemResetWarning,0834.0,5.01,000.00,025.1,024.7,000.0,033.2,027.0,018.7,0000.0,0001.78,0008.12,0001.14
2024-05-10 00:13:00,SystemResetWarning,0834.1,5.00,000.00,025.2,024.7,000.0,033.2,027.0,018.6,0000.0,0001.75,0008.04,0001.13
2024-05-10 00:14:00,SystemResetWarning,0834.0,5.00,000.00,025.2,024.8,000.0,033.2,027.1,018.5,0000.0,0001.72,0008.13,0001.12
2024-05-10 00:15:00,SystemResetWarning,0834.1,4.99,000.00,025.3,024.8,000.0,033.2,027.1,018.2,0000.0,0001.70,0008.15,0001.12
2024-05-10 00:16:00,SystemResetWarning,0834.1,5.00,000.00,025.3,024.9,000.0,033.3,027.2,018.5,0000.0,0001.69,0008.03,0001.11
2024-05-10 00:17:00,SystemResetWarning,0834.0,5.00,000.00,025.3,024.9,000.0,033.3,027.2,018.6,0000.0,0001.69,0006.93,0001.10
2024-05-10 00:18:00,SystemResetWarning,0834.0,5.00,000.00,025.4,025.0,000.0,033.3,027.2,018.5,0000.0,0001.66,0006.48,0001.08
2024-05-10 00:19:00,SystemResetWarning,0834.0,5.00,000.00,025.3,023.7,000.0,033.4,026.6,018.5,0000.0,0001.65,0005.55,0001.07
2024-05-10 00:20:00,SystemResetWarning,0833.9,5.01,000.00,024.9,021.9,000.0,033.5,025.6,018.6,0000.0,0001.66,0005.55,0001.07
2024-05-10 00:21:00,SystemResetWarning,0833.9,5.02,000.00,024.6,021.9,000.0,033.4,025.5,019.2,0000.0,0001.71,0005.19,0001.08
2024-05-10 00:22:00,SystemResetWarning,0833.9,5.01,000.00,024.5,022.2,000.0,033.3,025.6,019.0,0000.0,0001.73,0004.61,0001.08
2024-05-10 00:23:00,SystemResetWarning,0834.0,5.00,000.00,024.5,022.6,000.0,033.2,025.9,018.9,0000.0,0001.73,0005.95,0001.09
2024-05-10 00:24:00,SystemResetWarning,0834.0,5.00,000.00,024.6,022.9,000.0,033.1,026.1,018.9,0000.0,0001.76,0006.47,0001.12
2024-05-10 00:25:00,SystemResetWarning,0834.0,5.00,000.00,024.6,023.2,000.0,033.0,026.2,018.7,0000.0,0001.73,0006.52,0001.14
2024-05-10 00:26:00,SystemResetWarning,0834.0,4.99,000.00,024.6,023.5,000.0,033.0,026.3,018.9,0000.0,0001.71,0006.89,0001.14
2024-05-10 00:27:00,SystemResetWarning,0834.0,5.00,000.00,024.7,023.7,000.0,033.0,026.4,019.0,0000.0,0001.69,0006.84,0001.14
2024-05-10 00:28:00,SystemResetWarning,0834.0,5.00,000.00,024.7,023.9,000.0,033.0,026.5,019.1,0000.0,0001.68,0006.80,0001.14
2024-05-10 00:29:00,SystemResetWarning,0834.0,4.99,000.00,024.8,024.0,000.0,033.0,026.6,018.9,0000.0,0001.67,0006.81,0001.13
2024-05-10 00:30:00,SystemResetWarning,0834.1,4.99,000.00,024.8,024.2,000.0,033.0,026.6,018.9,0000.0,0001.65,0006.63,0001.12
2024-05-10 00:31:00,SystemResetWarning,0834.1,5.00,000.00,024.9,024.3,000.0,033.0,026.7,018.9,0000.0,0001.61,0006.50,0001.10
2024-05-10 00:32:00,SystemResetWarning,0834.1,5.01,000.00,024.9,024.4,000.0,033.0,026.8,018.5,0000.0,0001.58,0006.74,0001.09
2024-05-10 00:33:00,SystemResetWarning,0834.1,5.00,000.00,025.0,024.5,000.0,033.0,026.8,018.4,0000.0,0001.56,0007.06,0001.08
2024-05-10 00:34:00,SystemResetWarning,0834.1,5.01,000.00,025.0,024.5,000.0,033.1,026.8,018.3,0000.0,0001.56,0005.69,0001.07
2024-05-10 00:35:00,SystemResetWarning,0834.1,5.00,000.00,025.1,024.6,000.0,033.1,026.9,018.5,0000.0,0001.54,0005.23,0001.05
2024-05-10 00:36:00,SystemResetWarning,0834.1,5.00,000.00,025.1,024.7,000.0,033.1,026.9,019.0,0000.0,0001.55,0004.86,0001.01
2024-05-10 00:37:00,SystemResetWarning,0834.2,5.00,000.00,025.2,024.7,000.0,033.1,027.0,018.9,0000.0,0001.52,0004.27,0000.99
2024-05-10 00:38:00,SystemResetWarning,0834.2,4.99,000.00,025.2,024.8,000.0,033.2,027.1,019.0,0000.0,0001.49,0004.80,0000.97
2024-05-10 00:39:00,SystemResetWarning,0834.4,4.98,000.00,025.2,024.8,000.0,033.2,027.1,018.9,0000.0,0001.45,0005.00,0000.95
2024-05-10 00:40:00,SystemResetWarning,0834.5,5.01,000.00,025.3,024.9,000.0,033.2,027.1,018.8,0000.0,0001.42,0005.01,0000.93
2024-05-10 00:41:00,SystemResetWarning,0834.3,5.01,000.00,025.3,024.9,000.0,033.3,027.2,018.6,0000.0,0001.41,0005.14,0000.91
2024-05-10 00:42:00,SystemResetWarning,0834.4,5.00,000.00,025.4,025.0,000.0,033.3,027.2,019.1,0000.0,0001.41,0005.94,0000.90
2024-05-10 00:43:00,SystemResetWarning,0834.4,4.99,000.00,025.4,025.0,000.0,033.4,027.2,019.7,0000.0,0001.38,0006.05,0000.91
2024-05-10 00:44:00,SystemResetWarning,0834.4,4.99,000.00,025.4,025.0,000.0,033.4,027.3,019.7,0000.0,0001.38,0004.87,0000.91
2024-05-10 00:45:00,SystemResetWarning,0834.4,4.99,000.00,025.5,024.9,000.0,033.4,027.2,019.7,0000.0,0001.39,0004.86,0000.91
2024-05-10 00:46:00,SystemResetWarning,0834.5,5.00,000.00,025.2,023.0,000.0,033.5,026.2,020.1,0000.0,0001.39,0004.92,0000.92
2024-05-10 00:47:00,SystemResetWarning,0834.3,5.00,000.00,024.8,021.8,000.0,033.6,025.5,020.7,0000.0,0001.36,0004.77,0000.93
2024-05-10 00:48:00,SystemResetWarning,0834.3,5.01,000.00,024.6,022.0,000.0,033.5,025.5,021.3,0000.0,0001.34,0004.65,0000.94
2024-05-10 00:49:00,SystemResetWarning,0834.4,5.01,000.00,024.6,022.3,000.0,033.3,025.7,021.5,0000.0,0001.39,0004.97,0000.95
2024-05-10 00:50:00,SystemResetWarning,0834.4,5.00,000.00,024.6,022.7,000.0,033.2,026.0,021.6,0000.0,0001.40,0004.56,0000.97
2024-05-10 00:51:00,SystemResetWarning,0834.4,5.00,000.00,024.6,023.0,000.0,033.1,026.1,021.6,0000.0,0001.40,0004.82,0000.99
2024-05-10 00:52:00,SystemResetWarning,0834.5,5.00,000.00,024.6,023.3,000.0,033.1,026.3,021.3,0000.0,0001.43,0004.73,0001.01
2024-05-10 00:53:00,SystemResetWarning,0834.3,5.00,000.00,024.7,023.5,000.0,033.1,026.4,021.3,0000.0,0001.43,0004.13,0001.03
2024-05-10 00:54:00,SystemResetWarning,0834.4,5.00,000.00,024.7,023.7,000.0,033.0,026.5,021.3,0000.0,0001.45,0003.64,0001.05
2024-05-10 00:55:00,SystemResetWarning,0834.5,5.00,000.00,024.7,023.9,000.0,033.0,026.6,021.1,0000.0,0001.45,0005.16,0001.06
2024-05-10 00:56:00,SystemResetWarning,0834.5,5.01,000.00,024.8,024.0,000.0,033.0,026.6,021.1,0000.0,0001.43,0004.98,0001.07
2024-05-10 00:57:00,SystemResetWarning,0834.5,5.00,000.00,024.8,024.1,000.0,033.0,026.6,021.1,0000.0,0001.44,0004.98,0001.07
2024-05-10 00:58:00,SystemResetWarning,0834.5,5.00,000.00,024.9,024.2,000.0,033.0,026.7,021.3,0000.0,0001.44,0004.93,0001.08
2024-05-10 00:59:00,SystemResetWarning,0834.5,5.00,000.00,024.9,024.3,000.0,033.1,026.7,021.3,0000.0,0001.49,0005.04,0001.08
